Regional Weather Roundup
Issued by NWS

Home | Current Version | Previous Version | Text Only | Print | Product List | Glossary On
Versions: 1 2 3 4 5 6 7 8 9 10 11 12 13 14 15 16 17 18 19 20 21 22 23 24 25 26 27 28 29 30 31 32 33 34 35 36 37 38 39 40 41 42 43 44 45 46 47 48 49 50
000
ASUS45 KBOU 291107
RWRCO

WEATHER ROUNDUP FOR COLORADO
NATIONAL WEATHER SERVICE DENVER/BOULDER CO
400 AM MST THU JAN 29 2015

NOTE: "FAIR" INDICATES FEW OR NO CLOUDS BELOW 12000 FEET WITH NO
SIGNIFICANT WEATHER AND/OR OBSTRUCTIONS TO VISIBILITY.

COZ001>005-013-030-031-291200-
...NORTHWEST COLORADO...

CITY           SKY/WX    TMP DP  RH WIND       PRES   REMARKS
CRAIG          CLOUDY    32  30  92 CALM      30.38S
HAYDEN         CLOUDY    32  27  80 NE5       30.38R WCI  27
MEEKER         MOCLDY    23  19  85 CALM      30.39R
MOUNT WERNER   NOT AVBL
STEAMBOAT SPGS CLOUDY    32  29  87 CALM      30.38R
WALDEN         CLOUDY    30  27  86 CALM      30.37R
$$

COZ006>008-011-291200-
...WEST CENTRAL VALLEYS...

CITY           SKY/WX    TMP DP  RH WIND       PRES   REMARKS
GRAND JUNCTION MOCLDY    34  27  75 SE9       30.34S WCI  27
MONTROSE       CLOUDY    30  25  81 SE7       30.37S WCI  23
EAGLE          CLOUDY    30  28  93 CALM      30.40S
RIFLE          PTCLDY    31  26  82 E5        30.37S WCI  26
DELTA          CLOUDY    31  26  80 E3        30.36S
NUCLA          CLOUDY    32  27  80 CALM      30.37S
$$

COZ017>023-064>068-291200-
...SOUTHWEST COLORADO...

CITY           SKY/WX    TMP DP  RH WIND       PRES   REMARKS
DURANGO        CLOUDY    29  26  89 S3        30.32S
CORTEZ         CLEAR     30  26  85 E3        30.31F
PAGOSA SPRINGS CLOUDY    30  28  92 CALM      30.34S
TELLURIDE      CLOUDY    29  21  72 CALM      30.37S
WOLF CREEK PAS NOT AVBL
$$

COZ009-010-012-014-032>034-037-058>063-291200-
...CENTRAL COLORADO...

CITY           SKY/WX    TMP DP  RH WIND       PRES   REMARKS
ASPEN          MOCLDY    27  18  69 SW7       30.37R WCI  19
BUENA VISTA    MOCLDY    27  18  67 CALM      30.39R
COPPER MTN     CLOUDY    23  18  80 CALM      30.40S
BERTHOUD PASS  CLOUDY    14   9  79 NW10      30.41S WCI   1
COTTONWOOD PAS MOCLDY    32  18  55 CALM      30.39R
GUNNISON       MOCLDY    12   7  79 CALM      30.42S
KREMMLING      CLOUDY    28  23  80 CALM      30.40R
LEADVILLE      CLOUDY    21  13  71 CALM      30.38R
MONARCH PASS   CLOUDY    23  14  68 MISG      30.50S
SALIDA         CLOUDY    29  20  69 CALM      30.47R
SUNLIGHT       MOCLDY    27  23  86 CALM        N/A
WILKERSON PASS MOCLDY    19  16  86 SW3       30.43R
$$

COZ069>075-291200-
...SAN LUIS VALLEY/SANGRE DE CRISTO MOUNTAINS...

CITY           SKY/WX    TMP DP  RH WIND       PRES   REMARKS
ALAMOSA        CLOUDY    24  18  77 W6        30.34S WCI  17
LA VETA PASS   NOT AVBL
SAGUACHE       CLOUDY    28  23  80 NW9       30.36R WCI  20
$$

COZ035-036-038>040-291200-
...NORTHERN COLORADO FRONT RANGE...

CITY           SKY/WX    TMP DP  RH WIND       PRES   REMARKS
DENVER INTL AP CLOUDY    38  29  70 NW8       30.41R
DMNS CITY PARK   N/A     39  27  62 NW2       30.42R
AURORA         CLOUDY    36  29  77 NW7       30.43R
FRONT RANGE AP NOT AVBL
ERIE MUNI ARPT CLOUDY    37  31  79 CALM      30.43R
BOULDER MUN AP CLOUDY    39  30  70 CALM      30.42R
CENTENNIAL     CLOUDY    37  29  72 NW6       30.41R
BROOMFIELD     CLOUDY    37  30  75 NW5       30.43R
FORT COLLINS   CLOUDY    37  27  65 CALM      30.44R
LONGMONT       CLOUDY    40  30  67 CALM      30.45R
$$

COZ041-046-047-076>085-087-088-291200-
...PIKES PEAK/PALMER DIVIDE AND SOUTHERN FOOTHILLS...

CITY           SKY/WX    TMP DP  RH WIND       PRES   REMARKS
COLO. SPRINGS  CLOUDY    36  26  67 NW8       30.41R
A. F. ACADEMY  CLOUDY    34  24  68 N7        30.40R WCI  28
ELLICOTT       CLOUDY   N/A N/A N/A N10       30.39R
FALCON         CLOUDY    32  26  77 N8        30.40R WCI  25
FORT CARSON    CLOUDY    37  25  60 NW6       30.40R
LIMON          CLOUDY    32  26  78 NW9       30.38R WCI  24
MONUMENT HILL  CLOUDY    30  28  93 NW6       30.40R WCI  24
TRINIDAD       CLOUDY    36  29  75 N7        30.42R
$$

COZ042>045-048>051-090-091-291200-
...NORTHEAST COLORADO...

CITY           SKY/WX    TMP DP  RH WIND       PRES   REMARKS
GREELEY ARPT   CLOUDY    39  23  52 N10       30.41R
AKRON          CLOUDY    36  24  62 NW12      30.39R
BURLINGTON     MOCLDY    34  26  72 N14       30.36R WCI  25
WRAY           CLOUDY    34  28  80 NW7       30.39R WCI  28
STERLING       CLOUDY    39  30  70 NW8       30.40R
HOLYOKE        CLEAR     32  28  86 NW8       30.38R WCI  25
FORT MORGAN    CLOUDY    38  26  60 NW8       30.42R
$$

COZ086-089-092>099-291200-
...SOUTHEAST COLORADO...

CITY           SKY/WX    TMP DP  RH WIND       PRES   REMARKS
PUEBLO         CLOUDY    39  28  64 E5        30.42R
LA JUNTA       CLOUDY    37  29  72 MISG      30.41R
LAMAR          CLOUDY    38  29  70 NW8       30.38R
SPRINGFIELD      N/A     38  30  73 N18       30.37R
$$



USA.gov is the U.S. government's official web portal to all federal, state and local government web resources and services.